Wind_Speed
23 23 23 22 22 21 22 22 23 24 25 25 24 23 23 22 21 21 21 20 19 18 17 16 15 14 13 13 12 12 12 11 10 10 9 8 8 7 7 6 6 7 7 8 8 10 11 12 13 13 12 12 11 11 11 11 12 13 14 16 18 19 19 19 18 18 18 17 16 16 15 15 15 16 16 17 17 18 18 18 19 19 19 21 23
24 23 23 23 23 22 22 22 22 24 25 26 26 25 24 23 22 22 22 21 20 19 18 17 16 16 15 15 14 14 13 13 12 11 11 10 9 9 8 8 7 7 8 8 8 9 11 12 13 13 12 12 12 13 13 13 13 14 15 17 18 19 20 20 19 19 19 18 17 17 17 17 17 17 17 18 19 20 21 21 21 22 21 22 23
25 24 24 24 23 23 23 22 22 23 24 25 26 26 25 24 24 23 22 22 21 20 19 19 18 17 17 17 16 15 15 14 13 13 12 12 11 10 10 9 9 8 9 9 9 10 11 12 13 13 13 13 13 14 14 14 15 15 17 18 19 19 20 20 20 20 19 19 19 18 18 18 18 19 19 20 21 21 22 23 23 24 24 24 24
26 26 25 24 24 24 24 23 23 23 24 24 25 26 26 26 25 24 23 23 23 22 21 21 20 19 19 18 17 17 16 15 14 14 14 13 12 12 12 11 11 10 10 10 10 10 10 12 12 13 13 14 15 16 16 16 16 17 19 19 20 20 21 21 21 21 20 20 19 19 20 20 20 21 21 22 23 24 24 25 25 25 25 25 25
27 27 26 25 25 25 25 24 24 24 24 24 24 24 26 27 26 25 25 24 24 23 23 23 21 20 20 19 18 18 17 17 16 16 15 14 14 14 13 13 13 13 13 12 12 11 11 11 12 13 13 13 15 16 17 18 18 19 20 20 21 21 21 21 22 22 22 21 20 20 20 21 22 22 23 24 25 26 26 27 27 27 27 26 26
27 27 27 27 27 26 25 25 25 25 24 24 23 23 24 26 27 27 27 26 25 25 25 24 23 21 20 20 19 19 18 18 18 17 17 17 16 16 15 15 15 15 15 15 14 14 13 13 13 13 13 13 14 16 18 19 19 20 20 21 21 22 22 23 23 23 23 23 22 22 22 22 23 23 24 25 26 27 28 28 29 30 29 28 28
27 27 27 27 28 27 26 26 25 25 25 24 24 24 24 25 26 27 27 28 27 26 26 25 24 23 21 21 20 20 20 20 20 19 19 19 19 18 18 17 17 17 17 17 16 16 16 15 15 15 14 14 15 16 18 20 20 21 21 21 22 23 23 24 25 25 25 25 24 24 24 24 25 25 26 27 27 28 29 30 31 31 31 31 30
27 27 28 28 28 28 27 26 26 25 25 25 25 26 26 26 26 26 27 28 28 28 27 27 26 24 23 23 22 22 22 22 21 21 21 21 20 20 20 19 19 19 19 19 19 18 18 18 17 17 17 16 16 17 19 20 21 22 22 22 23 23 24 25 26 26 26 27 27 27 27 27 28 28 28 29 29 30 31 32 32 32 33 33 32
29 28 28 29 29 29 28 27 27 26 26 26 26 26 26 27 27 27 27 28 28 28 28 28 28 27 26 25 25 24 24 24 24 23 22 21 21 21 21 21 21 21 21 21 21 21 20 20 20 19 19 19 19 19 20 21 22 22 23 23 24 24 25 26 27 27 27 28 28 28 29 29 30 30 30 30 31 32 32 34 34 34 34 33 33
31 30 29 29 29 30 29 29 28 28 27 26 26 26 26 27 28 28 28 28 29 29 29 29 29 28 28 28 27 26 26 26 25 24 23 23 22 22 23 23 22 23 23 23 23 23 23 22 22 22 21 21 21 21 22 22 22 23 24 24 24 25 26 27 27 28 28 28 29 29 30 30 30 31 31 31 32 33 33 34 34 34 34 34 34
31 31 30 30 30 31 31 30 30 29 28 27 26 26 26 27 28 29 29 29 30 31 31 30 30 29 29 29 29 28 28 27 26 25 24 24 24 24 24 24 23 24 24 24 24 24 24 24 24 24 23 23 23 23 23 23 24 24 24 25 25 25 26 27 27 27 28 29 29 29 30 30 30 30 31 31 33 33 33 33 34 35 35 36 36
31 30 30 31 32 32 32 32 32 31 30 29 28 27 28 29 29 29 29 29 30 31 32 32 32 31 30 30 30 30 29 28 26 25 25 25 25 25 26 25 25 25 25 25 25 25 25 26 26 26 26 25 24 24 25 25 25 25 25 26 26 26 26 27 27 28 28 29 29 29 30 30 30 30 31 32 34 34 34 34 35 35 35 36 37
30 31 31 32 32 32 32 33 34 33 32 31 30 30 30 30 31 30 30 30 31 31 32 32 33 33 33 32 31 31 30 30 28 26 26 26 26 27 27 27 27 27 26 26 26 25 26 26 27 27 27 27 26 26 26 26 26 27 27 27 27 27 27 27 28 28 29 30 30 30 30 31 31 31 32 34 34 35 35 35 35 36 36 36 36
30 31 31 32 33 32 33 34 35 35 35 34 33 33 33 32 32 32 31 32 32 32 32 32 33 33 34 34 33 33 32 31 30 28 28 28 28 28 29 29 29 29 28 28 27 27 27 27 27 27 28 28 27 27 27 27 27 28 28 29 29 29 29 29 29 30 30 31 31 31 31 32 32 32 33 34 35 35 36 36 36 36 36 35 35
33 32 32 32 33 33 34 35 36 36 36 36 35 35 34 34 34 33 33 33 33 32 32 32 33 33 33 34 35 35 34 33 32 30 30 30 30 31 32 32 32 31 30 29 28 28 28 27 27 27 27 27 27 26 27 27 28 28 29 29 30 30 30 30 30 30 31 31 31 31 31 32 32 32 32 33 34 34 34 35 34 35 34 34 33
33 34 33 33 33 34 35 36 37 37 37 38 37 37 36 35 34 34 34 34 34 33 33 33 33 33 33 33 35 35 34 34 33 32 31 31 32 33 34 34 33 33 32 31 29 29 29 28 28 27 27 27 26 26 26 27 29 29 29 30 30 30 31 30 29 29 30 30 30 29 29 30 31 31 30 31 32 31 32 32 31 32 32 33 31
31 32 34 34 35 35 34 35 36 37 38 39 39 38 37 36 35 35 35 35 34 34 33 33 33 33 33 33 34 34 33 32 32 32 31 32 33 34 35 34 34 33 33 32 31 30 30 29 28 28 28 27 26 26 26 27 30 31 30 30 30 30 30 30 29 29 29 30 30 29 28 29 30 30 29 28 28 29 30 29 27 28 30 31 29
28 30 32 34 35 35 35 35 36 37 38 39 39 40 39 38 37 37 37 36 35 34 34 33 33 33 33 33 33 33 32 31 31 31 31 31 32 34 35 35 34 34 33 32 32 31 31 30 29 29 29 27 27 26 26 27 29 31 31 31 30 30 30 30 30 30 29 30 30 30 30 29 29 29 29 27 27 27 27 26 24 26 28 27 27
28 29 30 31 32 33 34 35 36 38 39 40 40 40 41 40 39 40 39 38 36 35 35 35 34 33 32 32 33 33 32 32 31 31 31 31 32 33 34 35 35 34 33 33 33 33 32 31 30 30 29 28 28 27 27 28 29 30 31 31 31 30 29 29 30 31 32 32 31 31 32 31 29 29 28 27 26 26 25 24 23 24 26 25 25
27 28 29 29 30 31 33 34 36 38 40 41 41 41 42 42 41 41 41 40 39 37 36 36 35 33 32 32 32 33 32 32 32 32 31 32 33 33 35 36 35 34 33 33 33 33 33 32 31 30 29 29 28 27 27 27 28 29 31 31 31 29 28 29 30 31 32 34 33 32 32 32 31 30 29 28 27 26 25 24 23 23 24 25 24
23 26 27 29 28 29 31 34 35 37 39 41 43 43 43 42 41 42 42 41 41 39 38 37 36 34 32 32 33 33 32 32 32 33 33 33 33 34 36 36 35 33 33 34 34 34 34 33 32 30 29 27 26 26 27 27 27 29 31 31 30 29 29 30 31 32 33 34 35 35 34 33 32 31 30 29 28 27 26 25 25 25 25 25 24
19 22 26 29 29 28 31 34 35 36 37 40 42 42 40 38 38 40 41 41 41 41 39 38 36 34 33 33 33 33 32 32 33 33 33 33 34 35 36 36 34 34 34 34 34 34 34 33 32 30 28 25 25 25 26 27 27 28 29 29 29 29 30 31 32 34 35 35 35 36 36 34 33 32 31 30 29 29 28 27 27 27 27 26 26
16 19 23 27 29 30 32 35 37 37 37 39 39 37 35 36 37 36 37 38 40 40 40 38 36 35 34 33 33 32 32 32 32 32 32 32 33 34 35 35 35 35 35 35 34 34 34 33 33 31 29 26 25 26 27 28 29 28 27 28 29 29 30 32 33 35 36 36 36 37 36 35 33 33 32 31 30 30 30 29 29 28 28 28 28
16 18 22 26 29 30 32 35 37 38 39 40 38 35 33 36 37 36 36 38 40 41 40 39 38 38 36 35 34 33 33 32 32 32 31 32 33 33 34 34 35 35 35 35 34 34 34 34 33 32 30 27 27 28 30 31 30 28 27 27 29 30 32 33 34 35 36 36 37 37 36 34 32 32 32 31 31 31 30 29 29 29 29 30 30
19 19 22 25 29 32 33 35 36 38 38 38 38 37 36 36 36 35 36 39 40 41 41 41 41 40 39 38 37 35 34 33 32 31 32 32 33 34 33 34 34 35 35 34 34 34 34 33 33 32 30 29 29 30 32 32 30 29 29 29 30 32 34 34 34 34 35 36 36 36 34 32 31 30 31 32 33 32 30 28 28 29 29 31 32
21 22 23 25 27 31 33 35 36 36 36 35 35 36 38 39 37 35 35 37 40 42 42 42 42 42 42 41 40 38 37 36 34 33 33 33 34 34 34 34 34 35 35 34 34 34 34 33 33 31 30 29 30 31 32 32 32 32 32 32 32 33 34 33 33 33 33 34 35 35 34 32 30 29 30 32 33 32 30 29 29 29 29 31 32
24 24 25 25 26 28 31 34 36 37 36 35 34 35 36 38 38 35 34 36 40 42 43 44 44 43 44 44 43 42 41 39 37 35 35 34 34 34 34 33 32 34 35 34 33 33 33 32 31 30 29 29 30 31 32 32 32 32 32 32 32 32 32 33 33 33 33 34 34 34 33 32 31 30 30 31 32 32 32 31 30 30 30 31 33
27 27 27 27 26 27 30 33 35 37 38 37 35 34 35 36 36 36 35 36 39 42 44 45 44 44 44 45 44 42 42 42 41 39 37 34 33 33 35 35 36 37 36 36 35 34 33 33 32 30 30 30 30 31 32 32 31 31 31 31 32 31 31 32 33 33 33 33 33 33 33 32 32 31 30 31 32 33 33 33 32 31 31 32 34
30 30 30 29 28 27 28 31 33 35 37 36 35 34 34 35 36 36 36 35 38 41 43 44 44 43 43 42 41 41 43 44 44 42 38 35 34 35 35 37 38 37 35 35 34 32 33 34 33 32 31 31 31 31 31 31 31 30 31 31 31 31 31 32 32 33 33 33 33 33 33 33 33 32 31 31 32 33 34 34 33 33 33 34 35
32 32 32 32 31 29 28 29 32 34 35 36 36 36 36 36 37 37 37 37 38 40 41 41 41 41 41 39 39 41 43 43 44 43 39 35 36 36 35 35 34 33 32 32 31 30 32 35 34 33 33 32 32 31 31 32 32 31 31 32 32 32 32 32 32 32 32 33 33 33 33 33 33 33 33 32 32 33 34 35 35 34 34 35 36
33 34 34 34 34 33 30 29 30 33 35 36 36 37 37 37 38 38 38 39 40 40 40 39 39 40 39 38 38 41 42 41 43 44 40 35 33 34 34 34 32 31 32 32 31 32 34 35 34 34 34 33 33 33 32 32 33 33 33 33 33 33 33 32 32 32 32 32 33 34 34 34 34 33 33 33 32 33 35 36 37 36 35 35 36
33 34 35 35 35 35 34 32 32 33 34 35 36 37 37 38 39 40 41 41 41 42 41 41 41 40 38 37 38 40 39 37 39 42 42 38 34 32 33 34 32 31 34 35 34 34 36 35 34 35 35 35 35 34 34 34 35 34 34 35 35 34 34 33 32 32 32 32 33 34 34 34 35 34 33 33 33 33 34 36 37 37 36 35 36
34 34 35 36 36 36 36 35 34 33 33 34 35 36 37 37 39 41 42 42 42 42 42 42 42 40 37 36 36 37 38 39 40 43 44 42 37 33 33 34 32 31 33 35 35 35 36 35 34 35 36 36 36 37 37 37 37 36 36 36 36 36 36 35 34 33 32 32 33 33 33 33 35 36 36 35 34 34 34 35 36 37 37 36 36
34 35 35 36 37 37 37 36 35 34 34 34 35 35 36 36 37 39 41 42 42 42 41 41 42 41 38 37 37 38 39 41 42 41 40 39 36 34 35 36 33 31 32 33 34 34 35 34 34 35 36 37 38 38 39 39 39 39 39 38 38 38 38 38 37 35 34 33 34 34 33 33 35 37 38 37 35 35 35 36 37 38 38 36 35
36 35 36 36 37 37 38 38 37 36 36 36 36 36 37 36 34 34 37 39 42 43 42 40 41 41 39 38 39 39 39 39 38 35 33 33 34 36 38 37 35 33 33 34 34 34 34 34 34 35 36 37 37 38 39 40 40 41 41 41 41 41 41 41 40 39 38 37 36 36 35 35 36 37 38 37 36 36 36 36 37 38 38 37 35
38 37 37 37 37 37 39 39 39 38 37 36 36 36 37 36 33 31 33 35 37 40 42 42 42 42 41 41 41 39 38 37 36 33 31 32 33 35 36 34 32 32 32 32 32 33 33 33 34 34 35 35 35 37 38 39 39 41 42 42 43 43 44 43 43 43 43 42 41 40 39 38 38 38 37 37 37 37 36 36 37 38 38 37 36
42 40 39 38 38 38 38 39 40 39 38 37 36 35 36 36 33 30 29 31 33 35 38 41 44 45 43 42 41 39 38 36 34 32 32 32 32 33 32 30 29 29 30 29 30 31 32 32 33 34 34 33 34 35 36 36 37 38 40 42 43 44 45 45 44 44 45 46 45 43 43 42 41 39 38 38 38 38 37 36 36 37 38 38 38
44 44 43 41 39 38 38 38 39 39 39 38 37 36 36 36 35 30 26 26 30 33 34 36 41 44 44 42 42 41 39 36 33 32 32 32 33 33 31 30 31 30 28 28 29 31 31 32 33 33 33 33 33 34 34 34 34 35 36 39 42 43 44 45 46 46 48 48 48 47 45 43 42 42 40 39 39 39 39 37 37 38 39 39 39
44 45 45 43 41 39 37 37 38 39 39 39 38 38 36 35 36 34 29 24 25 30 33 33 36 39 41 42 44 45 43 38 35 34 34 34 34 34 33 32 32 32 30 30 31 31 32 32 33 34 34 33 33 33 33 33 33 33 34 35 37 39 40 41 42 44 46 46 46 47 48 46 45 45 44 43 41 41 40 40 39 40 40 41 41
42 44 44 43 42 40 38 37 37 37 38 39 40 40 38 36 35 36 33 26 23 25 30 33 34 35 37 39 41 44 45 43 41 39 38 37 37 37 36 35 34 34 34 33 33 33 33 33 35 36 36 35 35 35 35 34 34 34 34 35 36 37 37 38 39 41 41 41 43 45 47 48 48 48 48 47 46 44 42 41 41 42 43 43 43
40 42 42 41 41 40 39 38 37 36 37 39 40 41 40 38 37 37 35 30 26 25 26 29 31 34 36 36 36 38 40 41 41 39 38 39 40 41 41 40 38 37 37 37 37 37 37 36 37 38 38 37 38 38 38 37 37 37 38 39 40 40 39 40 41 42 42 44 45 45 46 47 49 49 49 50 50 49 46 45 44 44 44 45 45
39 40 40 39 38 38 39 38 37 36 36 37 39 41 41 41 39 38 37 34 31 29 28 27 28 32 35 35 35 37 39 39 38 36 36 37 39 40 41 42 41 40 40 41 41 41 41 41 41 41 41 41 42 42 42 41 41 41 42 43 44 43 43 43 44 45 46 48 49 48 47 47 49 49 49 50 52 52 50 49 48 47 46 46 46
37 38 38 37 36 36 37 37 37 37 36 35 36 39 41 43 42 41 39 38 36 34 35 33 30 30 33 34 35 37 39 39 38 37 35 34 35 35 37 38 40 40 41 42 43 44 44 44 44 45 45 45 45 46 46 45 45 45 46 46 46 47 46 46 47 48 49 50 51 51 49 48 49 50 50 50 52 54 55 55 54 52 49 47 46
35 35 36 35 34 34 34 35 35 36 36 36 35 36 38 42 44 45 44 42 40 39 39 40 37 32 31 33 35 36 37 38 40 40 39 36 35 34 34 34 35 37 39 40 42 44 45 45 46 47 47 48 48 48 48 48 47 48 49 49 49 49 49 49 49 50 51 53 55 55 52 50 51 52 51 51 53 54 56 58 58 56 52 49 47
34 33 34 34 33 32 32 33 34 34 35 35 35 35 36 38 41 45 47 47 45 44 44 46 46 41 35 34 35 36 37 38 40 42 42 40 39 37 37 35 34 35 37 38 40 42 44 45 46 47 47 48 49 50 50 50 50 51 51 52 51 52 51 51 51 51 52 54 56 56 55 53 53 54 54 54 55 56 57 59 60 58 56 55 52
33 32 32 32 32 32 31 32 32 33 33 33 34 35 35 36 37 41 44 46 48 48 48 49 50 49 43 38 37 38 38 38 40 42 43 43 42 41 41 41 39 36 36 37 38 40 41 42 44 45 47 48 49 50 50 51 52 53 53 54 53 53 53 52 52 52 53 54 56 56 56 56 56 55 56 57 58 59 60 61 60 59 59 58 54
32 31 31 32 32 31 31 31 31 31 32 33 33 34 35 35 36 38 40 42 44 46 48 49 52 52 47 41 38 38 39 39 41 42 43 44 44 44 45 46 43 40 39 39 39 40 40 40 40 42 43 45 47 49 51 52 53 54 55 55 55 54 53 52 52 52 53 54 55 56 58 59 59 58 59 60 60 60 62 63 63 62 60 57 54
31 31 31 31 32 32 31 31 30 30 31 32 33 33 33 34 35 36 39 40 40 41 43 45 49 52 51 45 41 40 39 39 40 42 43 45 45 46 47 49 47 44 42 43 43 43 43 42 42 41 41 42 43 45 47 49 51 52 54 55 55 55 54 52 52 52 53 53 54 55 58 61 61 59 59 61 61 60 62 64 64 61 58 56 54
31 31 31 31 32 32 32 31 31 30 30 30 31 32 32 32 32 33 36 38 39 39 40 39 40 45 47 45 42 40 40 41 41 41 41 43 45 46 47 49 48 46 45 45 45 45 45 45 44 43 42 41 41 41 42 43 45 47 49 50 52 52 52 52 51 52 52 54 55 55 57 59 61 61 60 60 61 60 60 60 60 59 57 55 53
31 31 32 32 32 32 32 32 31 30 29 29 30 30 30 29 30 30 32 34 35 37 39 38 37 38 39 40 40 41 43 44 44 41 39 39 41 42 44 45 44 43 43 43 44 44 44 44 44 43 43 43 42 41 41 41 42 43 44 45 46 48 49 50 50 51 51 52 53 54 54 56 60 62 61 60 60 60 58 55 56 57 57 56 53
31 31 31 31 31 31 32 32 32 31 30 29 29 29 28 28 28 28 29 30 32 33 35 37 38 39 39 40 42 44 45 44 42 40 38 37 38 39 40 40 39 39 39 39 40 41 42 42 42 42 43 43 43 42 42 42 42 42 43 44 44 45 47 47 48 48 48 49 50 52 53 54 56 60 62 61 58 57 57 56 56 57 56 55 52
Wind_Direction
225 223 222 222 220 219 217 213 211 212 215 218 219 217 215 213 214 214 215 217 218 219 219 218 217 216 216 217 218 218 216 212 211 211 210 207 202 201 202 205 207 207 210 211 206 204 205 205 204 205 209 210 205 201 203 205 206 208 213 215 216 217 218 220 225 229 232 235 238 244 250 257 264 270 277 283 288 294 300 305 309 313 318 320 320
228 226 224 224 222 221 220 218 216 216 216 217 219 221 220 217 217 218 218 220 221 223 224 223 222 220 218 218 217 218 218 216 215 215 215 214 212 210 209 209 210 210 211 214 212 210 212 213 214 216 220 220 213 206 206 208 210 212 214 217 218 220 222 224 228 233 237 240 244 248 252 258 264 270 275 281 287 293 297 302 307 310 314 316 316
230 229 227 227 226 224 222 220 219 219 219 219 220 222 223 221 221 221 221 223 225 225 226 227 227 225 223 220 216 216 217 216 216 216 216 217 217 217 218 216 217 216 214 218 220 220 222 223 224 225 226 227 223 217 213 211 213 216 217 219 220 221 224 226 229 235 240 244 248 252 256 261 266 271 275 280 284 289 293 297 301 305 308 310 312
229 231 231 231 230 228 226 223 222 222 223 223 223 224 225 224 225 225 224 225 226 227 228 228 228 227 226 224 220 218 217 216 215 216 216 219 219 221 223 223 224 224 222 223 224 225 227 228 230 231 230 229 228 226 221 217 218 220 220 221 222 223 225 227 230 235 240 245 250 256 261 265 269 273 277 281 284 287 290 294 297 300 302 306 309
224 228 230 232 233 232 230 227 224 223 224 225 225 226 228 228 227 227 228 228 228 228 229 229 229 228 228 227 226 225 224 222 220 218 218 220 221 224 226 227 228 229 229 229 228 228 230 231 233 234 233 231 230 229 227 224 224 224 224 225 226 227 228 229 232 236 240 244 249 254 261 266 271 275 278 281 284 286 289 292 294 297 300 303 307
218 222 224 227 231 233 233 232 228 225 225 226 227 227 229 230 230 229 230 232 231 229 230 231 230 230 231 231 231 230 231 231 229 226 225 224 224 226 227 229 231 232 232 234 233 232 231 231 235 237 236 234 232 232 230 229 229 229 228 230 231 232 234 234 236 238 241 244 247 251 256 261 267 272 276 280 283 286 289 291 294 296 299 302 305
214 216 218 221 227 231 234 235 233 230 227 227 227 227 229 231 232 231 232 234 234 233 232 233 233 232 233 234 235 234 234 235 235 233 233 232 229 228 229 230 232 233 234 236 237 236 235 233 235 237 238 237 235 234 234 233 234 234 235 235 236 238 239 240 242 244 246 248 250 253 256 258 262 266 271 275 279 283 286 289 292 294 297 299 302
215 214 214 217 222 227 231 234 236 235 232 230 229 229 230 232 233 233 233 235 237 237 235 236 236 236 235 236 237 237 237 237 237 236 236 236 235 233 232 232 233 234 236 238 239 240 240 238 237 237 238 239 238 237 237 238 238 240 241 241 242 243 244 246 247 248 250 252 254 256 258 260 263 265 269 272 276 279 283 286 288 291 293 296 299
217 216 214 215 218 222 226 231 235 237 236 234 232 231 231 233 234 234 234 235 237 239 239 238 238 238 238 238 238 238 238 237 237 237 236 238 239 238 236 235 235 235 236 238 240 241 242 243 242 240 239 239 240 240 240 241 242 244 245 246 246 247 248 250 252 253 254 256 258 260 262 264 266 269 271 274 277 279 282 284 286 288 291 293 295
218 218 218 217 216 218 221 225 230 235 237 238 236 234 233 234 235 236 236 236 237 239 240 240 240 240 240 240 240 240 239 238 237 237 237 237 239 240 240 238 237 238 238 238 240 241 243 244 245 245 243 241 241 243 245 246 246 247 248 249 250 251 253 254 256 258 259 261 263 265 266 268 270 273 275 277 279 280 281 283 286 288 289 291 292
219 219 220 219 218 217 217 219 225 229 233 235 237 237 236 236 236 236 237 237 238 239 241 242 242 243 242 242 242 242 242 241 239 238 238 238 239 240 242 242 240 240 241 240 241 242 243 245 246 248 247 245 244 245 247 249 250 251 252 253 255 255 257 259 261 263 265 266 268 269 270 272 273 275 277 279 280 280 281 283 285 287 288 290 291
216 217 218 220 221 220 217 217 220 224 226 229 231 234 237 237 238 238 237 238 238 239 241 242 243 244 245 244 243 244 245 245 242 240 239 240 241 243 245 246 245 245 245 245 245 244 245 246 246 248 249 249 248 247 249 250 252 253 254 255 257 259 260 262 265 267 269 270 271 272 274 276 277 278 278 279 279 281 282 283 284 285 286 287 289
215 214 215 219 221 222 220 218 219 221 222 223 224 227 231 234 238 240 239 239 239 239 240 242 243 244 245 247 246 246 247 247 246 243 242 242 243 245 248 250 251 251 251 251 250 249 248 248 248 248 250 250 250 250 251 252 253 255 256 257 258 260 262 264 265 267 268 271 273 274 276 277 277 278 279 279 280 281 282 283 284 285 285 286 288
217 215 214 217 219 219 219 220 221 222 222 223 222 224 226 230 234 238 239 240 240 240 240 241 243 243 245 247 249 248 248 248 248 246 245 246 246 248 250 253 255 255 256 256 255 254 253 253 252 251 251 251 251 251 253 255 256 257 258 259 260 261 262 264 265 267 269 271 274 276 276 277 277 277 277 278 279 281 282 284 285 286 287 288 289
217 217 217 218 218 217 217 219 222 224 225 225 225 225 227 229 232 234 237 240 242 241 241 242 243 243 244 246 248 249 250 250 250 250 248 249 250 250 252 254 256 258 259 259 259 258 258 257 257 255 254 254 253 253 254 256 258 258 258 259 261 262 263 264 265 268 270 272 273 275 275 276 276 276 276 277 278 280 282 284 285 287 289 290 290
218 217 218 218 217 217 217 218 220 223 225 227 228 229 231 233 234 235 237 239 241 242 242 243 244 244 244 245 247 249 250 251 252 252 252 252 252 253 253 255 256 258 259 259 259 259 259 259 259 258 257 257 256 254 253 255 257 259 259 259 260 262 264 265 266 268 270 272 273 273 273 274 274 274 274 275 277 280 281 283 286 290 291 291 292
224 220 220 219 218 218 218 219 220 222 224 227 229 232 235 237 238 238 238 239 241 242 242 243 245 246 246 246 246 247 249 250 251 252 252 252 252 253 254 255 256 257 258 258 258 258 258 258 258 259 259 258 258 256 254 254 256 259 260 261 261 262 265 267 269 269 271 273 273 273 271 271 271 272 272 273 275 278 279 282 287 289 290 292 295
238 229 224 222 221 221 220 220 220 221 222 225 228 231 234 237 238 239 240 240 241 242 243 244 245 246 247 247 247 247 247 247 247 247 247 248 248 250 252 253 254 254 255 256 256 256 256 256 256 257 259 259 259 259 257 256 257 259 261 263 263 264 265 268 270 271 271 271 272 273 271 269 268 269 271 272 274 276 279 284 288 288 290 293 296
255 246 237 230 227 226 223 221 220 221 222 224 227 230 232 233 235 236 237 238 240 243 244 244 245 245 246 247 247 246 245 244 244 243 243 244 245 246 248 249 250 251 252 253 254 255 255 255 255 256 258 259 259 259 259 259 260 261 263 264 264 264 266 267 269 270 270 269 268 268 270 270 270 269 270 271 273 276 280 284 287 289 291 293 295
267 262 255 244 235 230 226 223 221 222 223 224 225 227 229 230 232 233 234 235 237 240 243 245 246 247 246 247 246 245 244 242 241 240 239 240 242 244 246 248 248 249 250 251 252 253 254 254 254 254 256 257 259 260 260 260 261 262 263 264 265 265 266 266 266 265 266 268 268 266 266 269 271 271 271 272 274 277 281 284 286 288 289 290 292
272 271 266 257 247 236 229 226 225 224 225 225 225 224 225 225 226 229 231 233 234 236 240 244 247 248 248 247 245 245 243 240 239 238 237 237 239 241 244 247 248 249 249 250 251 252 253 254 255 255 256 257 260 261 261 261 261 262 263 264 266 266 265 265 265 264 263 264 267 268 268 268 270 272 273 275 277 279 281 283 284 286 286 287 289
274 271 268 264 258 245 232 227 227 228 229 229 230 229 226 226 225 225 225 228 232 235 239 243 248 250 250 248 246 244 243 240 239 238 237 236 237 239 242 245 246 247 248 248 249 250 252 254 255 256 256 257 259 260 261 261 260 261 263 265 266 265 264 264 265 265 265 264 265 267 269 270 271 272 274 276 279 280 281 281 282 283 284 285 286
273 269 267 264 260 251 240 232 229 228 229 232 236 238 235 234 236 234 230 229 233 237 240 243 247 250 251 249 247 245 244 242 241 240 238 236 236 237 240 242 244 245 247 248 249 251 252 253 254 255 255 254 255 257 260 261 261 260 262 263 264 264 264 263 263 264 266 267 267 267 269 270 272 273 275 276 278 279 280 280 281 282 283 284 284
269 266 264 261 257 252 246 239 233 229 229 232 237 241 240 239 242 243 240 235 235 237 239 241 244 247 249 250 248 247 246 246 245 243 240 238 236 236 237 240 242 243 245 247 248 249 251 252 252 253 253 251 251 253 256 259 261 261 261 261 261 262 262 262 264 265 267 268 269 270 271 272 272 273 275 276 275 275 276 277 279 280 281 282 282
266 265 262 260 257 251 245 241 237 234 232 233 234 236 237 240 243 245 243 240 238 239 240 242 245 247 249 250 250 249 250 251 249 246 244 241 238 236 235 236 239 241 243 244 245 246 248 249 250 251 250 249 248 249 253 257 261 262 261 260 259 259 260 262 265 267 269 270 272 273 275 275 275 273 273 273 273 273 274 275 275 275 276 278 279
261 263 261 259 258 254 248 244 241 239 237 236 235 233 233 235 239 242 243 243 241 241 242 243 245 247 248 250 251 251 252 253 251 249 247 243 240 238 236 234 235 238 240 241 242 243 245 247 249 250 249 248 248 250 253 256 257 259 260 260 259 259 262 264 267 269 271 273 274 275 276 276 275 273 271 271 272 273 275 275 273 272 272 274 276
254 257 257 256 257 258 255 250 245 242 239 237 235 234 232 230 230 232 236 237 238 240 242 243 244 245 247 248 250 251 252 252 251 251 250 245 239 237 238 237 236 237 238 240 241 242 244 245 248 250 249 248 248 250 252 254 255 257 259 261 262 263 265 267 269 270 271 271 272 274 275 276 276 274 272 271 272 273 273 274 273 272 272 273 274
248 250 251 252 254 257 258 256 250 245 242 239 236 234 232 229 228 227 228 229 233 237 242 243 243 245 246 247 248 250 251 251 250 250 249 246 241 239 240 242 241 238 236 237 238 240 242 243 244 246 247 246 246 248 251 254 255 257 259 261 263 265 266 267 268 269 269 270 272 274 275 276 275 274 273 271 271 271 272 272 272 271 271 272 273
245 245 246 248 251 255 258 258 254 248 245 242 239 235 232 230 229 228 226 228 232 235 240 242 242 243 243 244 245 248 249 250 251 250 245 240 239 241 243 247 249 248 245 243 240 237 238 239 240 242 245 246 247 249 251 254 256 257 258 260 262 264 265 267 268 270 271 272 272 273 273 274 274 273 272 270 269 269 270 271 270 269 269 270 272
242 243 243 244 246 249 254 258 256 252 248 244 241 238 234 231 230 228 226 227 231 235 238 241 240 238 238 240 243 246 247 248 252 253 247 239 235 237 239 243 247 250 252 251 245 239 236 237 239 242 246 248 251 252 254 256 258 260 261 261 262 263 265 267 269 271 273 274 274 274 275 275 274 274 273 271 269 268 269 269 269 268 268 270 272
241 241 241 243 244 244 247 253 258 256 251 245 240 239 237 233 231 229 226 226 229 232 235 237 236 235 237 239 242 246 248 250 250 250 249 245 238 234 235 238 239 242 247 248 244 240 239 239 240 244 248 251 253 256 257 258 259 261 263 264 264 264 265 267 269 272 275 276 277 277 277 277 277 276 275 273 270 268 267 268 269 269 269 269 270
240 240 240 241 242 243 243 247 254 258 256 248 241 237 235 234 232 229 226 225 227 229 231 231 231 233 236 240 243 245 248 249 248 246 249 251 246 237 236 238 236 237 240 240 238 239 241 242 243 246 250 252 253 255 256 257 258 260 261 264 266 266 267 267 267 269 273 276 277 277 278 279 278 277 277 275 273 270 269 268 269 270 270 270 270
238 238 239 239 240 242 243 244 247 253 257 255 248 240 235 232 230 229 227 225 226 227 228 229 231 232 234 238 241 242 243 245 245 245 248 251 247 240 241 242 240 238 237 238 240 243 246 248 250 250 251 252 253 254 254 255 256 257 259 261 264 266 267 268 267 267 269 272 274 277 280 280 279 277 276 275 274 273 272 271 270 271 271 270 270
236 237 238 238 238 239 241 242 244 247 252 257 256 249 241 233 230 229 229 227 226 227 228 229 231 232 234 236 238 239 242 247 249 250 249 249 245 243 245 248 248 246 245 246 249 252 254 256 256 255 254 254 254 254 254 254 254 255 256 259 261 263 264 266 267 267 267 267 269 272 275 276 276 275 275 275 274 274 273 272 271 272 272 271 269
236 237 237 238 237 237 238 240 242 244 248 253 257 256 249 240 233 231 230 229 228 227 228 230 232 233 235 236 237 240 245 249 251 251 249 247 245 244 246 249 250 249 249 250 253 256 257 259 260 259 258 258 257 256 257 257 256 255 255 256 259 261 262 262 264 265 266 265 264 265 268 269 270 272 274 275 275 274 273 272 272 272 272 270 268
238 238 238 239 238 237 237 239 240 242 244 247 251 254 253 247 240 235 232 230 229 228 228 229 231 233 233 233 235 240 245 247 248 248 247 246 245 244 246 250 253 253 252 254 256 259 259 260 261 261 261 261 260 260 260 259 258 257 257 256 257 259 261 262 262 263 263 263 263 263 263 265 266 269 271 273 273 272 271 272 272 271 269 268 268
240 240 240 241 240 238 237 237 237 239 241 241 243 248 250 248 245 240 235 232 231 230 228 228 228 228 228 229 233 238 243 244 244 244 244 244 245 245 247 251 255 256 257 259 260 261 261 261 262 262 262 263 263 262 261 260 258 256 256 256 257 258 259 261 262 262 263 263 263 264 264 265 268 271 273 275 275 274 272 271 270 268 267 267 268
243 243 245 245 244 241 239 237 235 235 237 238 239 241 244 246 246 245 243 239 235 232 231 231 228 226 225 227 231 235 238 240 242 244 243 244 245 245 246 249 251 255 259 261 261 261 263 263 261 261 261 261 262 262 261 260 258 256 256 256 257 258 259 261 262 263 264 265 265 267 267 268 270 272 274 276 278 278 276 272 268 266 265 265 267
245 246 248 250 249 246 243 239 236 234 233 233 235 236 238 240 243 244 247 248 242 237 235 234 232 229 229 231 233 233 234 237 242 246 247 247 247 247 247 247 248 251 255 258 258 259 260 261 259 258 258 258 258 259 260 259 258 257 256 257 258 259 260 261 262 263 264 265 265 266 266 266 266 266 267 268 270 273 273 271 268 266 264 264 266
246 247 250 252 252 250 247 243 240 235 231 230 232 234 235 235 236 238 242 249 254 249 241 238 236 234 232 233 235 236 236 237 240 245 249 250 249 249 250 249 248 249 251 253 254 256 258 258 257 256 256 256 256 256 257 259 260 258 257 257 258 258 259 260 261 262 263 263 263 264 265 265 264 262 261 262 262 264 266 267 266 265 265 264 266
248 248 250 253 254 253 250 247 244 241 235 231 230 231 233 233 233 234 238 246 258 261 252 243 240 240 238 236 236 238 238 238 239 244 251 253 252 250 250 249 248 248 249 250 251 251 253 255 255 255 255 256 256 256 257 259 261 260 259 258 258 258 258 259 260 261 262 263 264 264 265 266 265 263 262 261 262 262 263 263 262 263 263 264 266
248 249 251 253 254 254 253 252 249 246 242 236 231 230 230 231 232 233 233 237 247 259 263 256 247 243 242 241 238 237 238 240 242 246 250 253 252 250 250 251 251 251 251 253 253 253 252 252 253 254 255 255 257 258 258 260 261 263 262 262 261 260 259 259 260 261 262 263 263 263 262 263 265 265 264 263 263 262 262 261 260 260 260 261 262
248 250 251 253 253 253 254 254 252 250 248 242 237 233 231 230 230 231 232 232 235 246 259 265 259 249 246 246 243 238 237 238 241 246 251 252 252 251 251 251 252 253 253 254 255 256 255 254 254 254 255 256 257 257 258 259 260 262 263 264 264 264 262 261 261 261 261 263 263 262 260 261 264 266 266 265 264 263 260 259 259 259 259 259 259
248 250 251 253 253 253 253 253 253 252 251 248 243 239 236 233 231 231 232 233 231 234 246 259 262 259 257 256 252 245 241 239 239 243 249 253 255 257 257 254 252 253 254 254 255 256 256 256 256 256 257 258 258 258 258 259 260 261 263 264 265 265 264 263 261 261 261 263 264 264 263 263 264 266 267 267 267 266 263 260 259 259 260 260 260
247 249 251 252 253 253 253 253 252 251 251 250 248 245 241 238 235 233 233 235 235 233 239 250 258 261 263 264 259 253 249 245 240 239 242 246 251 257 261 261 258 256 255 255 255 256 256 256 257 257 258 259 259 261 261 262 262 263 263 263 264 264 264 263 262 261 261 262 264 266 266 265 264 264 264 264 264 263 262 260 260 260 259 259 259
244 246 249 251 252 252 253 253 251 250 249 249 249 248 246 243 240 237 235 236 238 237 237 244 252 258 262 266 264 257 253 250 245 240 240 241 242 247 256 262 263 262 260 260 259 259 258 258 258 257 258 258 259 261 262 262 263 263 264 263 263 263 263 263 263 263 262 262 264 266 266 265 264 263 263 263 262 261 260 260 260 260 259 258 258
240 242 245 248 249 250 251 252 251 249 248 246 246 248 248 246 244 242 238 237 238 238 236 239 246 252 259 267 267 260 254 252 249 245 243 242 241 243 250 257 260 260 260 261 261 262 263 263 262 261 260 259 259 259 260 260 261 261 262 262 262 262 262 262 263 263 263 263 263 264 266 266 265 264 263 263 262 261 262 262 261 258 257 255 253
238 239 242 245 247 248 249 250 250 250 249 246 244 245 246 246 245 245 243 240 239 238 236 237 240 245 252 262 268 265 258 255 252 250 249 248 246 245 249 255 258 259 258 259 259 260 262 263 264 264 264 262 261 260 259 259 259 260 260 260 260 261 261 262 262 262 263 263 262 262 263 264 265 265 264 263 262 261 260 259 258 256 254 252 250
236 237 239 241 244 246 247 248 249 250 251 249 246 244 244 244 244 245 246 245 244 241 238 237 237 239 245 254 263 265 263 260 257 254 253 253 252 251 251 254 257 259 259 259 260 261 262 263 264 265 266 265 263 262 260 260 259 259 259 259 260 260 261 261 261 261 262 262 262 262 263 264 265 266 265 264 264 263 260 257 256 255 253 252 251
236 236 237 239 242 244 245 246 247 250 252 251 249 246 245 245 245 245 246 248 248 247 244 241 238 237 239 246 253 257 257 258 259 258 256 256 256 254 253 254 256 258 259 260 262 263 263 263 264 265 265 265 264 263 262 261 260 260 260 260 261 261 262 262 263 263 263 263 264 264 263 264 266 267 266 265 265 265 263 258 251 248 249 249 248
237 236 236 238 240 242 243 244 246 248 251 252 251 249 248 247 247 247 247 248 250 250 249 247 244 240 238 239 245 250 252 254 257 258 259 259 258 257 255 254 256 258 259 260 261 262 262 263 264 264 264 265 265 264 264 264 263 263 263 264 264 264 264 265 266 266 266 266 266 265 265 266 267 267 268 266 262 262 263 258 246 239 241 244 241
Height
3216 3218 3220 3221 3223 3225 3226 3228 3229 3231 3232 3234 3235 3236 3238 3239 3241 3242 3243 3244 3245 3246 3246 3247 3248 3249 3250 3250 3251 3252 3253 3253 3254 3255 3256 3257 3257 3258 3258 3259 3259 3260 3260 3261 3261 3262 3263 3263 3264 3265 3266 3266 3267 3268 3268 3269 3270 3270 3271 3271 3272 3273 3273 3274 3274 3275 3275 3275 3276 3276 3276 3277 3277 3277 3277 3276 3276 3276 3276 3275 3275 3275 3274 3272 3271
3214 3216 3218 3220 3221 3223 3225 3226 3228 3229 3231 3232 3234 3235 3236 3238 3239 3240 3242 3243 3244 3244 3245 3246 3247 3248 3249 3249 3250 3251 3252 3253 3253 3254 3255 3256 3257 3257 3258 3258 3259 3259 3260 3261 3261 3262 3262 3263 3264 3264 3265 3266 3266 3267 3267 3268 3269 3270 3270 3271 3271 3272 3273 3273 3273 3274 3274 3275 3275 3275 3276 3276 3276 3276 3276 3275 3275 3275 3274 3274 3273 3273 3272 3271 3270
3212 3214 3216 3218 3220 3222 3223 3224 3226 3227 3229 3230 3232 3233 3235 3236 3237 3238 3240 3241 3242 3243 3244 3245 3246 3246 3247 3248 3249 3250 3251 3252 3253 3253 3254 3255 3256 3256 3257 3257 3258 3258 3259 3260 3261 3261 3262 3262 3263 3263 3264 3265 3265 3266 3267 3267 3268 3268 3269 3270 3270 3271 3271 3272 3273 3273 3273 3274 3274 3274 3275 3275 3275 3275 3275 3274 3274 3273 3273 3272 3272 3271 3271 3270 3268
3210 3212 3214 3216 3218 3220 3221 3223 3224 3225 3227 3228 3230 3232 3233 3234 3235 3237 3238 3239 3240 3242 3243 3243 3244 3245 3246 3247 3248 3249 3250 3251 3252 3252 3253 3254 3254 3255 3256 3257 3257 3258 3258 3259 3260 3261 3261 3262 3262 3263 3263 3264 3264 3265 3266 3266 3267 3267 3268 3268 3269 3269 3270 3271 3271 3272 3272 3273 3273 3274 3274 3274 3274 3273 3273 3273 3272 3272 3271 3270 3270 3269 3269 3268 3267
3208 3210 3212 3214 3216 3217 3219 3220 3222 3223 3225 3227 3228 3230 3231 3232 3234 3235 3236 3237 3239 3240 3241 3242 3243 3244 3245 3246 3247 3248 3248 3249 3250 3251 3252 3252 3253 3254 3255 3256 3256 3257 3258 3258 3259 3260 3260 3261 3261 3262 3262 3263 3263 3264 3264 3265 3266 3266 3267 3267 3268 3268 3269 3269 3270 3270 3271 3272 3272 3273 3272 3272 3272 3272 3271 3271 3270 3269 3269 3268 3268 3267 3267 3266 3265
3205 3207 3210 3212 3213 3215 3217 3218 3220 3222 3223 3225 3226 3228 3229 3230 3232 3233 3234 3236 3237 3238 3239 3240 3241 3243 3244 3245 3245 3246 3247 3248 3249 3250 3251 3251 3252 3253 3253 3254 3255 3256 3257 3257 3258 3258 3259 3260 3260 3261 3261 3262 3262 3263 3263 3264 3264 3265 3265 3266 3267 3267 3267 3268 3268 3269 3269 3270 3271 3271 3271 3271 3270 3270 3269 3269 3268 3267 3267 3266 3265 3265 3264 3264 3263
3202 3205 3207 3209 3210 3212 3214 3216 3218 3220 3221 3223 3224 3226 3227 3228 3230 3231 3232 3234 3235 3236 3237 3238 3239 3241 3242 3243 3244 3245 3245 3246 3247 3248 3249 3250 3251 3252 3252 3253 3254 3255 3255 3256 3256 3257 3258 3258 3259 3259 3260 3261 3261 3261 3262 3262 3263 3263 3264 3265 3265 3266 3266 3266 3266 3267 3268 3268 3269 3269 3269 3269 3269 3268 3268 3267 3266 3265 3264 3264 3263 3263 3262 3262 3261
3199 3202 3204 3206 3208 3210 3212 3214 3215 3217 3219 3221 3222 3223 3225 3226 3228 3229 3230 3231 3232 3234 3235 3236 3237 3239 3240 3241 3242 3242 3243 3244 3245 3246 3247 3248 3249 3250 3251 3252 3252 3253 3254 3254 3255 3256 3256 3257 3257 3258 3258 3259 3260 3260 3260 3261 3261 3262 3262 3263 3264 3264 3264 3264 3265 3265 3266 3266 3267 3267 3267 3267 3267 3266 3266 3265 3264 3264 3263 3262 3261 3261 3260 3259 3259
3197 3199 3201 3203 3205 3207 3209 3211 3213 3214 3216 3217 3219 3221 3222 3224 3225 3226 3228 3229 3230 3231 3232 3233 3234 3236 3237 3238 3239 3240 3241 3242 3242 3244 3245 3246 3247 3248 3249 3250 3251 3251 3252 3253 3253 3254 3254 3255 3255 3256 3257 3257 3258 3258 3258 3259 3260 3260 3261 3261 3262 3262 3262 3263 3263 3263 3264 3264 3264 3265 3264 3264 3264 3264 3263 3263 3262 3261 3260 3259 3259 3258 3257 3257 3256
3193 3196 3198 3200 3202 3204 3206 3208 3209 3211 3213 3215 3216 3218 3220 3221 3222 3223 3225 3226 3227 3228 3229 3230 3231 3233 3234 3235 3236 3237 3238 3239 3240 3242 3243 3244 3245 3246 3247 3248 3249 3249 3250 3250 3251 3252 3252 3253 3253 3254 3254 3255 3256 3256 3257 3257 3258 3258 3258 3259 3259 3260 3260 3260 3260 3261 3261 3261 3262 3262 3262 3262 3262 3261 3261 3260 3259 3259 3258 3256 3256 3255 3254 3253 3253
3191 3193 3196 3197 3199 3200 3202 3204 3206 3208 3209 3211 3213 3215 3216 3217 3219 3220 3222 3223 3224 3225 3226 3227 3229 3230 3231 3232 3233 3234 3235 3236 3238 3240 3241 3242 3243 3244 3244 3245 3246 3247 3247 3248 3248 3249 3250 3250 3251 3251 3252 3253 3253 3254 3254 3255 3255 3256 3256 3256 3257 3257 3257 3257 3258 3258 3258 3258 3259 3259 3259 3259 3259 3259 3258 3258 3256 3255 3255 3254 3253 3252 3251 3250 3249
3187 3190 3192 3194 3195 3197 3199 3200 3202 3203 3206 3208 3210 3211 3213 3214 3215 3216 3218 3220 3221 3222 3223 3224 3226 3227 3228 3229 3230 3231 3232 3234 3236 3237 3239 3240 3241 3241 3242 3243 3243 3244 3245 3245 3246 3247 3247 3248 3248 3248 3249 3250 3251 3251 3252 3252 3253 3253 3253 3254 3254 3254 3254 3254 3255 3255 3255 3255 3255 3255 3256 3256 3256 3256 3255 3254 3253 3252 3252 3251 3250 3249 3248 3247 3246
3183 3185 3188 3189 3191 3194 3196 3197 3198 3199 3201 3203 3205 3207 3208 3210 3211 3213 3215 3216 3217 3218 3220 3221 3222 3224 3224 3225 3227 3228 3229 3231 3233 3235 3236 3237 3238 3239 3239 3240 3240 3241 3242 3243 3243 3244 3244 3245 3245 3246 3246 3247 3247 3248 3249 3249 3250 3250 3250 3250 3251 3251 3251 3251 3252 3252 3252 3251 3251 3252 3252 3252 3252 3252 3251 3250 3249 3249 3248 3247 3247 3246 3245 3245 3244
3179 3182 3184 3185 3188 3190 3192 3194 3195 3196 3197 3199 3201 3202 3204 3205 3207 3209 3210 3211 3212 3214 3216 3217 3218 3220 3221 3222 3223 3225 3226 3227 3229 3231 3233 3234 3235 3236 3236 3236 3237 3237 3238 3239 3240 3241 3241 3242 3242 3243 3243 3244 3244 3245 3246 3246 3247 3247 3247 3247 3247 3248 3248 3248 3248 3248 3248 3248 3248 3248 3248 3248 3248 3248 3248 3246 3245 3245 3244 3243 3243 3242 3241 3241 3241
3176 3178 3180 3182 3184 3186 3187 3189 3191 3193 3194 3195 3196 3198 3200 3201 3203 3204 3206 3207 3208 3210 3212 3213 3214 3216 3218 3219 3219 3221 3222 3224 3226 3228 3230 3231 3232 3232 3233 3233 3233 3234 3235 3236 3237 3237 3238 3239 3239 3240 3240 3240 3241 3242 3243 3243 3243 3243 3243 3243 3244 3244 3244 3244 3245 3245 3244 3244 3244 3244 3245 3244 3244 3244 3244 3242 3241 3241 3241 3240 3239 3238 3238 3237 3237
3171 3173 3175 3177 3179 3181 3183 3185 3187 3189 3190 3191 3193 3195 3196 3198 3200 3201 3202 3203 3204 3206 3207 3209 3210 3212 3214 3215 3216 3217 3219 3221 3222 3224 3226 3227 3228 3228 3229 3229 3230 3230 3231 3232 3233 3234 3235 3235 3236 3236 3237 3237 3238 3239 3240 3240 3239 3239 3239 3240 3240 3240 3240 3241 3242 3242 3241 3241 3241 3241 3241 3240 3240 3240 3240 3239 3238 3238 3237 3236 3236 3236 3234 3233 3233
3167 3169 3170 3172 3175 3177 3179 3181 3183 3185 3186 3188 3189 3191 3193 3195 3196 3197 3198 3199 3200 3201 3203 3205 3206 3208 3209 3211 3212 3213 3215 3217 3219 3220 3222 3223 3224 3224 3224 3225 3226 3226 3227 3228 3229 3230 3231 3232 3232 3233 3233 3234 3235 3236 3237 3237 3236 3236 3236 3236 3237 3237 3237 3238 3238 3238 3238 3237 3236 3237 3237 3237 3236 3236 3236 3236 3235 3235 3233 3234 3234 3233 3231 3230 3230
3164 3165 3166 3168 3171 3173 3175 3177 3179 3181 3182 3183 3186 3188 3189 3191 3192 3193 3194 3195 3196 3197 3199 3200 3201 3203 3204 3206 3207 3209 3211 3213 3214 3216 3217 3218 3219 3219 3220 3220 3221 3222 3223 3224 3225 3226 3227 3228 3229 3229 3230 3231 3231 3232 3233 3233 3233 3232 3232 3233 3233 3234 3234 3235 3235 3234 3234 3233 3233 3232 3232 3232 3233 3232 3232 3232 3232 3231 3230 3231 3231 3230 3228 3228 3227
3160 3161 3162 3164 3166 3168 3171 3173 3175 3176 3177 3179 3181 3183 3184 3186 3187 3188 3189 3191 3192 3193 3195 3195 3196 3198 3200 3201 3203 3204 3206 3208 3209 3211 3212 3213 3214 3215 3215 3215 3216 3218 3219 3220 3221 3221 3222 3224 3225 3226 3226 3227 3228 3228 3229 3229 3229 3229 3229 3229 3230 3230 3231 3232 3231 3231 3229 3229 3229 3229 3228 3228 3229 3229 3229 3229 3229 3228 3228 3228 3228 3227 3226 3225 3225
3157 3158 3159 3161 3162 3164 3166 3168 3170 3171 3173 3174 3176 3177 3179 3181 3182 3183 3184 3186 3187 3189 3190 3191 3192 3194 3195 3197 3198 3199 3201 3203 3204 3206 3207 3209 3209 3210 3210 3210 3212 3213 3215 3216 3216 3217 3217 3219 3220 3221 3223 3224 3224 3225 3225 3225 3226 3226 3225 3225 3226 3227 3228 3228 3227 3227 3226 3224 3224 3225 3224 3224 3225 3225 3225 3225 3225 3225 3225 3224 3224 3224 3223 3223 3222
3154 3155 3156 3157 3159 3160 3161 3163 3165 3167 3168 3169 3169 3169 3171 3173 3176 3178 3180 3182 3183 3184 3186 3187 3188 3190 3191 3192 3193 3194 3195 3197 3199 3200 3202 3203 3204 3205 3205 3205 3207 3209 3210 3211 3211 3212 3213 3214 3215 3217 3218 3220 3220 3221 3221 3221 3222 3221 3221 3222 3223 3224 3224 3223 3222 3222 3221 3221 3220 3220 3220 3221 3221 3221 3221 3222 3222 3222 3222 3221 3221 3221 3220 3220 3220
3152 3153 3153 3154 3155 3157 3157 3158 3161 3162 3163 3163 3163 3163 3165 3168 3170 3172 3173 3176 3178 3180 3182 3183 3184 3186 3187 3188 3189 3190 3191 3192 3194 3194 3196 3198 3199 3200 3200 3201 3203 3204 3205 3205 3206 3207 3208 3209 3211 3212 3214 3216 3217 3217 3217 3217 3217 3217 3217 3218 3219 3219 3219 3219 3218 3217 3216 3217 3217 3216 3216 3217 3217 3218 3218 3218 3218 3218 3218 3218 3218 3217 3217 3216 3216
3149 3150 3150 3150 3151 3153 3153 3154 3156 3157 3158 3158 3158 3160 3165 3168 3169 3170 3172 3174 3176 3177 3178 3179 3180 3182 3183 3184 3185 3186 3187 3188 3189 3189 3191 3192 3194 3194 3195 3196 3198 3199 3199 3200 3202 3203 3204 3205 3206 3207 3209 3211 3212 3213 3212 3212 3212 3213 3214 3214 3215 3215 3215 3214 3213 3212 3212 3212 3212 3212 3212 3213 3214 3214 3214 3215 3215 3215 3214 3214 3214 3214 3214 3213 3213
3146 3147 3147 3147 3148 3149 3149 3150 3151 3151 3152 3153 3155 3159 3163 3166 3167 3169 3171 3173 3173 3173 3174 3175 3176 3177 3178 3180 3181 3182 3183 3183 3184 3185 3186 3188 3188 3189 3190 3191 3192 3193 3194 3195 3196 3197 3199 3200 3201 3202 3204 3206 3208 3208 3208 3208 3208 3209 3210 3211 3210 3210 3209 3209 3208 3208 3208 3208 3208 3208 3208 3210 3211 3211 3211 3211 3211 3211 3211 3211 3211 3211 3210 3210 3209
3143 3144 3144 3144 3144 3145 3145 3146 3146 3147 3147 3149 3151 3155 3158 3160 3163 3165 3167 3168 3169 3169 3170 3171 3171 3172 3173 3175 3176 3177 3178 3179 3179 3180 3181 3182 3183 3184 3185 3186 3186 3187 3188 3189 3191 3192 3193 3194 3195 3197 3199 3201 3202 3203 3203 3204 3204 3205 3205 3206 3206 3205 3204 3204 3205 3204 3204 3204 3204 3204 3205 3206 3207 3207 3207 3207 3207 3207 3207 3208 3208 3207 3207 3206 3205
3140 3141 3141 3141 3141 3141 3142 3142 3142 3143 3143 3145 3147 3149 3151 3154 3157 3159 3161 3163 3164 3165 3166 3166 3167 3168 3168 3169 3170 3172 3173 3174 3175 3175 3176 3177 3178 3179 3179 3180 3180 3181 3182 3183 3185 3186 3188 3189 3190 3192 3195 3196 3197 3198 3198 3199 3199 3200 3200 3200 3200 3200 3200 3200 3201 3201 3200 3200 3200 3200 3201 3202 3202 3203 3203 3202 3202 3203 3203 3203 3203 3203 3203 3202 3201
3137 3137 3137 3137 3137 3138 3138 3138 3138 3139 3139 3140 3142 3144 3146 3148 3150 3152 3154 3156 3158 3159 3160 3161 3162 3162 3163 3164 3165 3166 3167 3169 3170 3171 3171 3172 3173 3173 3174 3175 3175 3176 3176 3178 3180 3182 3183 3184 3186 3188 3190 3191 3192 3192 3193 3193 3194 3194 3195 3195 3195 3196 3196 3197 3197 3197 3196 3196 3196 3196 3196 3197 3198 3198 3198 3198 3198 3198 3199 3199 3199 3199 3199 3198 3197
3133 3134 3134 3134 3134 3134 3134 3135 3135 3135 3135 3136 3138 3139 3141 3143 3145 3146 3147 3148 3150 3152 3154 3155 3157 3158 3158 3159 3161 3161 3162 3164 3165 3166 3166 3167 3168 3168 3169 3169 3168 3168 3169 3171 3173 3176 3178 3180 3181 3183 3184 3185 3186 3187 3187 3188 3189 3190 3190 3191 3191 3192 3192 3192 3192 3192 3192 3192 3192 3192 3192 3193 3193 3193 3194 3194 3194 3194 3194 3194 3194 3195 3194 3194 3193
3129 3130 3130 3130 3130 3131 3131 3131 3131 3131 3131 3132 3133 3135 3136 3138 3140 3141 3143 3143 3144 3146 3147 3149 3152 3152 3153 3155 3156 3157 3158 3159 3160 3160 3160 3159 3159 3160 3162 3163 3162 3163 3165 3167 3168 3169 3172 3174 3175 3177 3178 3179 3181 3182 3183 3183 3184 3185 3186 3186 3187 3187 3187 3187 3187 3187 3188 3188 3188 3188 3188 3188 3188 3189 3189 3189 3189 3190 3190 3190 3190 3190 3190 3189 3189
3124 3125 3126 3126 3127 3127 3127 3127 3128 3128 3128 3128 3129 3130 3131 3133 3135 3136 3138 3139 3140 3141 3143 3145 3147 3148 3148 3151 3152 3152 3153 3155 3157 3158 3157 3153 3151 3151 3153 3155 3157 3160 3163 3165 3166 3167 3167 3168 3170 3172 3173 3174 3176 3177 3178 3179 3180 3181 3181 3182 3182 3182 3182 3183 3183 3183 3184 3184 3183 3184 3184 3184 3184 3184 3184 3184 3185 3185 3185 3185 3185 3185 3185 3185 3184
3119 3120 3120 3122 3123 3123 3124 3124 3124 3124 3124 3124 3124 3125 3126 3128 3129 3131 3132 3134 3135 3136 3138 3141 3143 3143 3144 3146 3147 3147 3148 3150 3152 3154 3154 3151 3146 3144 3145 3148 3151 3155 3158 3160 3162 3164 3164 3164 3165 3167 3168 3170 3171 3173 3174 3175 3176 3176 3177 3177 3177 3178 3178 3178 3179 3179 3179 3179 3179 3179 3179 3179 3179 3179 3179 3180 3180 3180 3180 3180 3180 3180 3180 3180 3180
3114 3115 3115 3116 3118 3119 3119 3120 3120 3120 3120 3120 3121 3120 3121 3122 3124 3126 3127 3128 3130 3132 3134 3136 3138 3139 3140 3141 3142 3143 3145 3146 3147 3149 3150 3148 3144 3140 3138 3141 3146 3150 3153 3156 3158 3159 3159 3159 3160 3161 3163 3164 3166 3168 3169 3170 3171 3172 3172 3172 3172 3173 3173 3174 3174 3175 3175 3174 3174 3174 3174 3174 3174 3174 3175 3175 3175 3175 3175 3175 3175 3175 3176 3176 3175
3108 3109 3110 3111 3112 3114 3115 3115 3116 3116 3116 3117 3117 3117 3116 3117 3118 3120 3121 3122 3124 3126 3128 3130 3132 3134 3136 3137 3138 3140 3141 3142 3143 3145 3146 3144 3140 3136 3133 3135 3140 3145 3148 3150 3152 3153 3153 3154 3156 3157 3157 3159 3161 3162 3163 3165 3166 3167 3167 3168 3168 3168 3168 3169 3169 3170 3170 3170 3169 3169 3169 3169 3169 3169 3169 3170 3170 3170 3170 3170 3170 3170 3170 3170 3170
3103 3104 3105 3106 3107 3108 3110 3111 3111 3112 3112 3113 3113 3113 3113 3112 3112 3114 3116 3118 3119 3121 3123 3125 3127 3129 3131 3132 3134 3135 3136 3137 3138 3140 3139 3137 3134 3132 3130 3131 3134 3139 3142 3144 3145 3147 3148 3149 3150 3151 3152 3153 3155 3156 3157 3159 3160 3161 3162 3163 3163 3163 3163 3164 3164 3164 3165 3165 3164 3164 3164 3164 3164 3163 3163 3164 3164 3164 3164 3165 3165 3164 3164 3164 3165
3097 3098 3099 3100 3101 3103 3104 3106 3106 3107 3108 3108 3109 3110 3110 3109 3108 3109 3111 3113 3114 3116 3118 3120 3122 3124 3126 3127 3128 3129 3130 3131 3132 3133 3133 3131 3129 3129 3128 3129 3131 3133 3136 3138 3139 3141 3142 3144 3145 3146 3147 3149 3150 3151 3152 3153 3155 3156 3157 3158 3158 3158 3158 3158 3158 3159 3159 3159 3159 3159 3159 3159 3158 3158 3158 3158 3158 3158 3158 3159 3159 3158 3158 3159 3159
3092 3093 3094 3095 3096 3097 3099 3100 3101 3102 3103 3104 3105 3105 3106 3106 3105 3105 3106 3108 3110 3112 3113 3115 3116 3118 3120 3122 3123 3123 3124 3125 3126 3127 3127 3127 3126 3126 3126 3127 3129 3130 3131 3133 3135 3136 3137 3139 3141 3142 3143 3145 3146 3147 3148 3149 3150 3150 3151 3152 3152 3152 3152 3152 3153 3153 3153 3153 3153 3153 3153 3153 3153 3153 3152 3152 3152 3152 3153 3153 3153 3153 3153 3153 3153
3087 3088 3089 3089 3090 3091 3093 3094 3095 3096 3097 3099 3100 3101 3102 3102 3102 3101 3101 3102 3105 3107 3108 3110 3111 3113 3115 3116 3117 3118 3119 3120 3120 3122 3122 3123 3123 3124 3125 3125 3126 3127 3127 3129 3130 3131 3133 3134 3136 3138 3139 3141 3142 3143 3143 3144 3145 3145 3146 3146 3146 3146 3146 3146 3147 3147 3146 3146 3147 3147 3147 3147 3147 3147 3148 3147 3146 3146 3146 3147 3147 3147 3147 3148 3148
3082 3083 3083 3084 3085 3086 3087 3088 3089 3090 3091 3093 3095 3096 3097 3098 3099 3099 3098 3098 3099 3101 3103 3105 3106 3108 3109 3110 3111 3112 3113 3114 3116 3117 3118 3119 3120 3121 3122 3123 3123 3123 3124 3126 3127 3128 3129 3130 3131 3133 3135 3136 3137 3138 3139 3139 3140 3140 3141 3140 3140 3141 3141 3141 3141 3141 3141 3140 3141 3141 3141 3142 3142 3142 3142 3142 3141 3140 3140 3140 3140 3141 3141 3141 3142
3077 3078 3078 3079 3081 3081 3082 3083 3084 3085 3086 3087 3089 3091 3093 3094 3094 3096 3096 3096 3096 3097 3098 3100 3101 3103 3104 3105 3106 3107 3108 3110 3112 3114 3115 3115 3116 3117 3118 3119 3119 3120 3121 3122 3123 3123 3125 3126 3127 3128 3130 3131 3132 3133 3134 3134 3135 3135 3135 3135 3135 3135 3135 3135 3135 3135 3134 3134 3135 3134 3134 3134 3135 3135 3135 3135 3134 3134 3134 3134 3134 3134 3135 3135 3136
3072 3073 3073 3074 3076 3077 3077 3078 3079 3079 3080 3082 3084 3086 3088 3089 3090 3091 3093 3093 3093 3093 3094 3095 3097 3099 3100 3101 3102 3104 3105 3106 3108 3110 3111 3111 3112 3113 3113 3114 3115 3116 3117 3118 3119 3119 3120 3122 3123 3124 3125 3126 3127 3128 3129 3130 3130 3131 3130 3130 3130 3130 3130 3130 3130 3129 3129 3128 3128 3127 3127 3126 3126 3127 3126 3126 3127 3127 3127 3127 3128 3128 3128 3129 3129
3067 3068 3069 3070 3071 3072 3072 3074 3074 3075 3075 3077 3078 3080 3082 3084 3085 3086 3088 3090 3090 3090 3091 3092 3093 3095 3096 3097 3099 3100 3102 3103 3105 3106 3106 3107 3107 3108 3108 3108 3109 3110 3111 3112 3113 3114 3115 3117 3118 3119 3119 3120 3121 3122 3123 3124 3125 3126 3125 3124 3124 3124 3125 3125 3124 3124 3123 3122 3122 3121 3120 3119 3119 3119 3120 3120 3120 3120 3120 3121 3121 3121 3121 3122 3123
3062 3063 3064 3065 3066 3067 3068 3069 3070 3071 3071 3072 3073 3075 3076 3079 3080 3081 3083 3085 3087 3087 3087 3088 3090 3091 3092 3094 3095 3096 3097 3099 3100 3102 3102 3103 3103 3103 3103 3103 3104 3105 3106 3107 3108 3109 3110 3111 3112 3113 3113 3114 3115 3116 3117 3118 3119 3120 3119 3119 3118 3118 3119 3119 3119 3118 3116 3115 3115 3115 3114 3112 3112 3113 3113 3113 3113 3113 3112 3112 3113 3113 3113 3114 3116
3058 3059 3060 3061 3062 3063 3064 3064 3065 3066 3067 3067 3068 3069 3071 3073 3075 3076 3078 3080 3082 3083 3084 3084 3086 3087 3088 3090 3091 3092 3092 3094 3095 3097 3097 3098 3098 3098 3098 3098 3098 3099 3100 3101 3102 3103 3104 3106 3106 3107 3107 3108 3108 3109 3110 3111 3112 3112 3112 3112 3112 3112 3112 3113 3113 3111 3110 3109 3108 3108 3108 3109 3108 3107 3107 3107 3106 3105 3104 3104 3104 3105 3105 3107 3108
3053 3054 3055 3057 3058 3058 3059 3060 3061 3062 3062 3063 3063 3064 3066 3068 3069 3071 3073 3074 3076 3078 3079 3080 3081 3083 3084 3085 3086 3087 3087 3088 3090 3091 3092 3092 3092 3093 3093 3093 3093 3094 3094 3095 3096 3097 3098 3099 3100 3100 3101 3101 3101 3102 3103 3104 3104 3105 3105 3105 3105 3104 3105 3105 3105 3104 3103 3102 3100 3100 3103 3105 3103 3101 3101 3100 3099 3097 3096 3095 3095 3097 3099 3100 3100
3049 3050 3051 3052 3053 3054 3055 3056 3057 3057 3058 3058 3059 3060 3061 3062 3064 3065 3067 3069 3071 3073 3074 3076 3076 3078 3079 3079 3080 3081 3081 3082 3084 3085 3086 3087 3087 3087 3087 3088 3088 3088 3088 3089 3090 3091 3091 3092 3093 3093 3094 3094 3094 3094 3095 3095 3096 3097 3097 3097 3097 3097 3097 3097 3097 3097 3096 3095 3092 3092 3094 3096 3095 3093 3092 3091 3089 3087 3086 3086 3087 3088 3090 3091 3091
3044 3045 3046 3048 3049 3050 3051 3052 3053 3053 3054 3054 3055 3055 3056 3057 3058 3060 3062 3064 3065 3067 3069 3070 3071 3072 3073 3074 3074 3075 3075 3076 3077 3079 3080 3081 3082 3082 3082 3082 3082 3082 3082 3083 3084 3084 3085 3085 3086 3086 3086 3086 3086 3086 3087 3087 3088 3088 3088 3088 3088 3088 3089 3089 3089 3089 3089 3088 3086 3085 3084 3084 3085 3085 3083 3082 3080 3078 3077 3078 3079 3080 3080 3081 3083
3039 3041 3042 3043 3045 3046 3047 3048 3049 3050 3050 3050 3051 3051 3052 3053 3054 3055 3056 3058 3060 3062 3064 3065 3066 3067 3068 3068 3069 3069 3070 3070 3071 3072 3073 3074 3076 3076 3077 3077 3077 3077 3077 3077 3078 3078 3078 3079 3079 3079 3079 3079 3079 3079 3079 3079 3079 3079 3079 3079 3079 3079 3080 3081 3081 3081 3080 3080 3079 3078 3075 3074 3074 3075 3074 3073 3072 3071 3069 3068 3069 3070 3071 3072 3073
3035 3036 3038 3039 3040 3042 3043 3044 3045 3046 3046 3046 3047 3047 3048 3048 3049 3050 3052 3053 3055 3056 3058 3059 3061 3062 3063 3063 3063 3063 3064 3064 3065 3066 3066 3067 3068 3069 3070 3070 3070 3071 3071 3071 3072 3072 3072 3072 3072 3072 3072 3072 3072 3072 3072 3072 3072 3072 3071 3071 3071 3071 3071 3072 3072 3072 3072 3071 3071 3070 3068 3065 3064 3065 3065 3064 3064 3063 3061 3060 3060 3061 3063 3064 3064
3030 3032 3033 3034 3036 3037 3039 3040 3041 3042 3042 3043 3043 3044 3044 3045 3045 3046 3047 3048 3050 3051 3052 3053 3055 3056 3058 3059 3059 3058 3058 3058 3059 3059 3060 3061 3061 3062 3063 3063 3063 3064 3065 3065 3065 3065 3065 3065 3065 3065 3065 3066 3066 3066 3065 3065 3065 3065 3064 3064 3064 3063 3063 3063 3063 3063 3063 3063 3062 3062 3061 3058 3056 3056 3056 3056 3055 3054 3053 3053 3054 3056 3058 3059 3059
3026 3027 3028 3030 3031 3033 3034 3035 3037 3038 3038 3039 3039 3040 3040 3041 3041 3042 3042 3044 3045 3046 3047 3048 3049 3050 3053 3055 3056 3055 3054 3054 3054 3054 3054 3054 3055 3055 3056 3056 3057 3057 3058 3058 3058 3059 3059 3059 3058 3058 3058 3058 3058 3058 3058 3058 3057 3057 3057 3057 3057 3056 3056 3055 3055 3055 3055 3055 3054 3054 3054 3052 3049 3047 3047 3047 3047 3046 3046 3047 3048 3050 3051 3052 3053
3021 3023 3024 3026 3027 3028 3030 3031 3032 3034 3035 3035 3036 3036 3037 3037 3038 3038 3038 3039 3040 3041 3042 3043 3044 3045 3046 3048 3050 3051 3050 3050 3049 3049 3048 3048 3049 3049 3049 3050 3050 3051 3051 3052 3052 3052 3052 3052 3051 3051 3051 3051 3051 3051 3050 3050 3049 3049 3049 3049 3049 3048 3048 3047 3047 3048 3048 3047 3046 3046 3045 3044 3042 3039 3037 3037 3038 3038 3038 3038 3038 3038 3041 3044 3047